Regional Weather Roundup
Issued by NWS

Home | Current Version | Previous Version | Text Only | Print | Product List | Glossary On
Versions: 1 2 3 4 5 6 7 8 9 10 11 12 13 14 15 16 17 18 19 20 21 22 23 24 25 26 27 28 29 30 31 32 33 34 35 36 37 38 39 40 41 42 43 44 45 46 47 48 49 50
000
ASUS44 KFWD 260615
RWRTX
NORTH TEXAS HOURLY WEATHER ROUNDUP
NATIONAL WEATHER SERVICE FORT WORTH TX
100 AM CDT TUE JUL 26 2016

NOTE: "FAIR" INDICATES FEW OR NO CLOUDS BELOW 12,000 FEET WITH NO
SIGNIFICANT WEATHER AND/OR OBSTRUCTIONS TO VISIBILITY.

TXZ118-119-260700-
DALLAS/FORT WORTH METROPLEX

CITY           SKY/WX    TMP DP  RH WIND       PRES   REMARKS
DFW AIRPORT    MOCLDY    80  71  74 S6        29.94R
6HR MIN TEMP:  79; 6HR MAX TEMP:  85; 6HR PCP: TRACE;

DALLAS LOVE    PTCLDY    82  72  71 W5        29.94R
6HR MIN TEMP:  82; 6HR MAX TEMP:  86; 6HR PCP: TRACE;

FTW MEACHAM    CLEAR     80  70  71 S7        29.95R
6HR MIN TEMP:  80; 6HR MAX TEMP:  95;

DAL-EXECUTIVE  PTCLDY    78  70  76 CALM      29.95R
6HR MIN TEMP:  78; 6HR MAX TEMP:  86; 6HR PCP: TRACE;

FTW-ALLIANCE   MOCLDY    79  70  74 CALM      29.95R
6HR MIN TEMP:  78; 6HR MAX TEMP:  90;

FTW-NAS-JRB    CLEAR     80  70  71 S7        29.95R
6HR MIN TEMP:  80; 6HR MAX TEMP:  94;

FTW-SPINKS     CLEAR     77  71  82 S3        29.96S HAZE
6HR MIN TEMP:  76; 6HR MAX TEMP:  89;

ARLINGTON      CLEAR     79  72  79 CALM      29.94S
6HR MIN TEMP:  79; 6HR MAX TEMP:  89;

GRAND PRAIRIE  CLEAR     80  71  73 SW5       29.96R
6HR MIN TEMP:  80; 6HR MAX TEMP:  88;

ADDISON        CLEAR     82  75  79 CALM      29.96R
6HR MIN TEMP:  80; 6HR MAX TEMP:  83;

MESQUITE       MOCLDY    75  75 100 CALM      29.95R
6HR MIN TEMP:  75; 6HR MAX TEMP:  79; 6HR PCP:  0.04;

LANCASTER      CLOUDY    78  72  82 CALM      29.96R
6HR MIN TEMP:  78; 6HR MAX TEMP:  87;

$$

TXZ091>094-102>105-117-120-121-131>134-260700-
NORTH CENTRAL TEXAS

CITY           SKY/WX    TMP DP  RH WIND       PRES   REMARKS
SHRMAN/DENISON CLEAR     79  73  81 CALM      29.97S
6HR MIN TEMP:  79; 6HR MAX TEMP:  87;

GAINESVILLE    CLEAR     76  71  83 CALM      29.99R
6HR MIN TEMP:  76; 6HR MAX TEMP:  87;

BOWIE          CLEAR     76  72  86 CALM      29.98R
6HR MIN TEMP:  76; 6HR MAX TEMP:  90;

BRIDGEPORT     CLEAR     75  73  91 CALM      29.98R
6HR MIN TEMP:  75; 6HR MAX TEMP:  93;

DECATUR        CLEAR     78  69  73 S3        29.97S
6HR MIN TEMP:  77; 6HR MAX TEMP:  88;

DENTON         CLEAR     78  70  76 CALM      29.94S
6HR MIN TEMP:  77; 6HR MAX TEMP:  88;

MCKINNEY       CLOUDY    77  72  84 CALM      29.95R
6HR MIN TEMP:  76; 6HR MAX TEMP:  81;

GREENVILLE     PTCLDY    75  72  88 CALM      29.96R
ROCKWALL       PTCLDY    76  74  96 CALM      29.94R
6HR MIN TEMP:  76; 6HR MAX TEMP:  78; 6HR PCP:  0.03;

TERRELL        CLOUDY    76  73  91 S3        29.94R
6HR MIN TEMP:  76; 6HR MAX TEMP:  84;

WAXAHACHIE     CLEAR     74  72  92 CALM      29.96R
6HR MIN TEMP:  74; 6HR MAX TEMP:  85;

CLEBURNE       CLEAR     75  75 100 CALM      29.97S
GRANBURY       CLEAR     80  69  70 CALM      29.97S
6HR MIN TEMP:  80; 6HR MAX TEMP:  95;

$$

TXZ083>090-098>101-113>116-127>130-139>142-154-155-260700-
WESTERN NORTH TEXAS

CITY           SKY/WX    TMP DP  RH WIND       PRES   REMARKS
WICHITA FALLS  PTCLDY    78  71  79 SE5       29.96S
6HR MIN TEMP:  78; 6HR MAX TEMP:  90;

WF-KICKAPOO    PTCLDY    82  70  66 SE3       29.97S
6HR MIN TEMP:  82; 6HR MAX TEMP:  93;

VERNON         CLEAR     83  67  59 SE5       29.98F
6HR MIN TEMP:  83; 6HR MAX TEMP: 100;

ABILENE        CLEAR     79  67  66 S8        30.01R
6HR MIN TEMP:  79; 6HR MAX TEMP:  97;

ABILENE-DYESS  CLEAR     80  67  64 SE14      29.99R
6HR MIN TEMP:  80; 6HR MAX TEMP:  98;

CISCO          CLEAR     77  70  78 S9        30.00S
BRECKENRIDGE   CLEAR     80  68  67 S7        29.98R
6HR MIN TEMP:  80; 6HR MAX TEMP:  99;

GRAHAM         CLEAR     79  70  74 CALM      29.96R
6HR MIN TEMP:  79; 6HR MAX TEMP:  97;

MINERAL WELLS  CLEAR     77  70  79 CALM      29.95R
6HR MIN TEMP:  77; 6HR MAX TEMP:  96;

STEPHENVILLE   PTCLDY    75  69  82 CALM      30.00S
6HR MIN TEMP:  75; 6HR MAX TEMP:  91;

COMANCHE       CLEAR     75  71  88 SW3       29.98S
6HR MIN TEMP:  74; 6HR MAX TEMP:  91;

BROWNWOOD      PTCLDY    75  70  83 CALM      29.98F
COLEMAN        CLEAR     77  67  71 S6        30.00F
6HR MIN TEMP:  77; 6HR MAX TEMP:  97;

$$

TXZ143>147-156>162-174-175-260700-
CENTRAL TEXAS

CITY           SKY/WX    TMP DP  RH WIND       PRES   REMARKS
WACO           PTCLDY    74  72  93 CALM      29.93F
6HR MIN TEMP:  74; 6HR MAX TEMP:  78;

WACO-MCGREGOR  CLEAR     75  70  84 CALM      29.94S
6HR MIN TEMP:  75; 6HR MAX TEMP:  83; 6HR PCP: TRACE;

HILLSBORO      PTCLDY    72  71  96 CALM      29.95R
6HR MIN TEMP:  72; 6HR MAX TEMP:  81;

CORSICANA      PTCLDY    77  73  87 CALM      29.95R
6HR MIN TEMP:  77; 6HR MAX TEMP:  82;

MEXIA          PTCLDY    73  72  98 CALM      29.93S
6HR MIN TEMP:  73; 6HR MAX TEMP:  75;

HEARNE         PTCLDY    75  74  99 CALM      29.92F
6HR MIN TEMP:  75; 6HR MAX TEMP:  81; 6HR PCP:  0.05;

CAMERON        PTCLDY    76  74  91 NW3       29.92S
6HR MIN TEMP:  76; 6HR MAX TEMP:  82; 6HR PCP:  0.07;

TEMPLE         PTCLDY    74  72  93 CALM      29.94F
6HR MIN TEMP:  74; 6HR MAX TEMP:  80; 6HR PCP: TRACE;

KILLEEN        PTCLDY    74  71  88 CALM      29.93F
6HR MIN TEMP:  74; 6HR MAX TEMP:  85; 6HR PCP:  0.02;

KILLEEN-SKYLRK PTCLDY    75  72  90 CALM      29.94F
6HR MIN TEMP:  75; 6HR MAX TEMP:  81; 6HR PCP:  0.04;

FORT HOOD      PTCLDY    75  71  89 SW5       29.92F
6HR MIN TEMP:  74; 6HR MAX TEMP:  80; 6HR PCP:  0.01;

GATESVILLE     CLOUDY    75  73  94 CALM      29.97S
HAMILTON       CLEAR     74  73  97 CALM      29.98R
6HR MIN TEMP:  74; 6HR MAX TEMP:  86;

LAMPASAS       CLOUDY    76  74  96 CALM      29.95S
6HR MIN TEMP:  75; 6HR MAX TEMP:  80; 6HR PCP:  0.01;

$$

TXZ095>097-106>112-122>126-135>138-148>153-164>167-260700-
EAST TEXAS

CITY           SKY/WX    TMP DP  RH WIND       PRES   REMARKS
PARIS          PTCLDY    77  66  69 CALM      29.97R
6HR MIN TEMP:  77; 6HR MAX TEMP:  86;

SULPHUR SPRNGS CLOUDY    77  74  92 W5        29.97R
6HR MIN TEMP:  77; 6HR MAX TEMP:  80;

MOUNT PLEASANT CLEAR     76  72  86 CALM      29.95R
6HR MIN TEMP:  76; 6HR MAX TEMP:  90;

GILMER         CLEAR     76  74  93 CALM      29.94R
6HR MIN TEMP:  76; 6HR MAX TEMP:  91;

MINEOLA        MOCLDY    75  73  94 CALM      29.95R
TYLER          PTCLDY    77  72  84 NW3       29.93S
6HR MIN TEMP:  77; 6HR MAX TEMP:  85;

LONGVIEW       CLEAR     75  73  93 CALM      29.91S
6HR MIN TEMP:  75; 6HR MAX TEMP:  91;

MARSHALL       CLEAR     75  72  88 CALM      29.94S
6HR MIN TEMP:  75; 6HR MAX TEMP:  90;

ATHENS         PTCLDY    75  75 100 CALM      29.93R
PALESTINE      PTCLDY    75  75 100 CALM      29.94R FOG
JACKSONVILLE   PTCLDY    74  74  98 CALM      29.95R
HENDERSON      CLEAR     73  73 100 CALM      29.94R FOG
6HR MIN TEMP:  73; 6HR MAX TEMP:  82; 6HR PCP:  0.13;

CENTER         PTCLDY    76  74  95 CALM      29.93F
6HR MIN TEMP:  76; 6HR MAX TEMP:  80;

NACOGDOCHES    CLEAR    N/A N/A N/A CALM      29.90F
                                      6HR PCP:  0.03;

LUFKIN         CLOUDY    74  74 100 CALM      29.91S FOG
6HR MIN TEMP:  75; 6HR MAX TEMP:  78; 6HR PCP:  0.08;

$$

SUPPLEMENTAL OBSERVATIONS (CENTRAL)

CITY           SKY/WX    TMP DP  RH WIND       PRES   REMARKS
CADDO GRASSLND   N/A     75  72  88 CALM        N/A
PAT MAYSE LAKE   N/A     77  72  83 VRB5        N/A
GC1F1C2F2C3F3C4F4C5F5C6F6C7F7C8F8C9!



USA.gov is the U.S. government's official web portal to all federal, state and local government web resources and services.